Time,TemperatureF,DewpointF,PressureIn,WindDirection,WindDirectionDegrees,WindSpeedMPH,WindSpeedGustMPH,Humidity,HourlyPrecipIn,Conditions,Clouds,dailyrainin,SoftwareType,DateUTC
2013-07-02 07:22:00,72.1,55.1,28.82,SE,146,0.0,0.0,55,0.00,,BKN047,0.00,VWS V14.01,2013-07-02 11:22:00,
2013-07-02 07:27:00,72.3,55.8,28.82,SE,146,0.0,0.0,56,0.00,,BKN047,0.00,VWS V14.01,2013-07-02 11:27:00,
2013-07-02 07:33:00,72.5,56.9,28.82,SE,146,0.0,0.0,58,0.00,,BKN050,0.00,VWS V14.01,2013-07-02 11:33:00,
2013-07-02 07:38:00,72.5,56.9,28.82,SE,146,0.0,0.0,58,0.00,,BKN050,0.00,VWS V14.01,2013-07-02 11:38:00,
2013-07-02 07:43:00,72.5,55.4,28.82,SE,146,0.0,0.0,55,0.00,,BKN050,0.00,VWS V14.01,2013-07-02 11:43:00,
2013-07-02 07:48:00,72.5,55.4,28.82,SE,146,0.0,0.0,55,0.00,,BKN050,0.00,VWS V14.01,2013-07-02 11:48:00,
2013-07-02 07:53:00,72.7,56.6,28.82,SE,146,0.0,0.0,57,0.00,,BKN050,0.00,VWS V14.01,2013-07-02 11:53:00,
2013-07-02 07:58:00,72.9,56.8,28.82,WSW,243,0.0,0.0,57,0.00,,BKN050,0.00,VWS V14.01,2013-07-02 11:58:00,
2013-07-02 08:03:00,72.9,56.8,28.85,WSW,243,0.0,0.0,57,0.00,,BKN050,0.00,VWS V14.01,2013-07-02 12:03:00,
2013-07-02 08:08:00,73.0,55.9,28.85,ESE,122,0.0,0.0,55,0.00,,BKN050,0.00,VWS V14.01,2013-07-02 12:08:00,
2013-07-02 08:13:00,73.2,54.6,28.85,NNE,12,0.0,0.0,52,0.00,,BKN050,0.00,VWS V14.01,2013-07-02 12:13:00,
2013-07-02 08:18:00,73.2,55.1,28.85,SSE,147,0.0,0.0,53,0.00,,BKN050,0.00,VWS V14.01,2013-07-02 12:18:00,
2013-07-02 08:23:00,73.6,55.4,28.85,SE,143,2.2,2.2,53,0.00,,BKN050,0.00,VWS V14.01,2013-07-02 12:23:00,
2013-07-02 08:28:00,73.8,55.1,28.85,East,93,0.0,0.0,52,0.00,,BKN050,0.00,VWS V14.01,2013-07-02 12:28:00,
2013-07-02 08:33:00,73.9,53.0,28.85,North,3,2.7,2.7,48,0.00,,BKN050,0.00,VWS V14.01,2013-07-02 12:33:00,
2013-07-02 08:39:00,74.3,53.4,28.85,East,86,0.0,0.0,48,0.00,,BKN050,0.00,VWS V14.01,2013-07-02 12:39:00,
2013-07-02 08:44:00,74.5,55.7,28.85,East,86,0.0,0.0,52,0.00,,BKN050,0.00,VWS V14.01,2013-07-02 12:44:00,
2013-07-02 08:49:00,74.5,53.5,28.85,NNW,343,0.0,0.0,48,0.00,,BKN050,0.00,VWS V14.01,2013-07-02 12:49:00,
2013-07-02 08:54:00,74.5,54.1,28.85,East,101,0.0,0.0,49,0.00,,BKN050,0.00,VWS V14.01,2013-07-02 12:54:00,
2013-07-02 08:59:00,74.5,54.1,28.85,ESE,102,0.0,0.0,49,0.00,,BKN050,0.00,VWS V14.01,2013-07-02 12:59:00,
2013-07-02 09:04:00,74.3,53.4,28.85,SE,144,0.0,0.0,48,0.00,,BKN050,0.00,VWS V14.01,2013-07-02 13:04:00,
2013-07-02 09:09:00,74.1,54.3,28.85,ESE,123,0.0,0.0,50,0.00,,BKN050,0.00,VWS V14.01,2013-07-02 13:09:00,
2013-07-02 09:14:00,74.1,54.3,28.85,SSE,154,2.7,2.7,50,0.00,,BKN050,0.00,VWS V14.01,2013-07-02 13:14:00,
2013-07-02 09:19:00,73.9,54.7,28.85,SSW,207,0.0,0.0,51,0.00,,BKN050,0.00,VWS V14.01,2013-07-02 13:19:00,
2013-07-02 09:24:00,74.1,55.4,28.85,WSW,249,0.0,0.0,52,0.00,,BKN050,0.00,VWS V14.01,2013-07-02 13:24:00,
2013-07-02 09:29:00,74.1,54.9,28.85,SE,146,0.0,0.0,51,0.00,,BKN050,0.00,VWS V14.01,2013-07-02 13:29:00,
2013-07-02 09:35:00,74.3,57.1,28.85,ENE,72,0.0,0.0,55,0.00,,BKN050,0.00,VWS V14.01,2013-07-02 13:35:00,
2013-07-02 09:40:00,74.3,56.1,28.85,WNW,289,0.0,2.2,53,0.00,,BKN050,0.00,VWS V14.01,2013-07-02 13:40:00,
2013-07-02 09:45:00,74.1,55.9,28.85,North,353,0.0,0.0,53,0.00,,BKN050,0.00,VWS V14.01,2013-07-02 13:45:00,
2013-07-02 09:50:00,73.8,56.1,28.85,WSW,241,0.0,0.0,54,0.00,,BKN050,0.00,VWS V14.01,2013-07-02 13:50:00,
2013-07-02 09:55:00,73.4,56.8,28.85,East,96,0.0,0.0,56,0.00,,BKN050,0.00,VWS V14.01,2013-07-02 13:55:00,
2013-07-02 10:00:00,73.4,58.2,28.85,NE,54,0.0,0.0,59,0.00,,BKN050,0.00,VWS V14.01,2013-07-02 14:00:00,
2013-07-02 10:05:00,73.2,59.0,28.85,NE,54,0.0,0.0,61,0.00,,BKN050,0.00,VWS V14.01,2013-07-02 14:05:00,
2013-07-02 10:10:00,72.9,58.6,28.85,SW,218,2.7,2.7,61,0.04,,BKN050,0.04,VWS V14.01,2013-07-02 14:10:00,
2013-07-02 10:15:00,72.5,60.1,28.85,SW,218,0.0,0.0,65,0.04,,BKN050,0.04,VWS V14.01,2013-07-02 14:15:00,
2013-07-02 10:20:00,72.1,62.2,28.88,SW,218,0.0,0.0,71,0.08,,BKN050,0.08,VWS V14.01,2013-07-02 14:20:00,
2013-07-02 10:25:00,70.9,60.2,28.88,SSW,213,4.9,4.9,69,0.12,,BKN050,0.12,VWS V14.01,2013-07-02 14:25:00,
2013-07-02 10:30:00,70.7,62.0,28.88,SW,224,0.0,0.0,74,0.12,,BKN050,0.12,VWS V14.01,2013-07-02 14:30:00,
2013-07-02 10:35:00,70.3,62.4,28.88,SW,224,0.0,0.0,76,0.12,,BKN050,0.12,VWS V14.01,2013-07-02 14:35:00,
2013-07-02 10:40:00,70.7,64.2,28.88,SW,224,0.0,0.0,80,0.12,,BKN050,0.12,VWS V14.01,2013-07-02 14:40:00,
2013-07-02 10:45:00,70.7,64.9,28.88,SW,224,0.0,0.0,82,0.43,,BKN050,0.43,VWS V14.01,2013-07-02 14:45:00,
2013-07-02 10:51:00,70.9,65.8,28.88,SW,224,0.0,0.0,84,0.43,,BKN050,0.43,VWS V14.01,2013-07-02 14:51:00,
2013-07-02 10:56:00,70.7,66.0,28.88,SW,224,0.0,0.0,85,0.43,,BKN050,0.43,VWS V14.01,2013-07-02 14:56:00,
2013-07-02 11:01:00,71.2,67.5,28.88,SW,224,0.0,0.0,88,0.43,,BKN050,0.43,VWS V14.01,2013-07-02 15:01:00,
2013-07-02 11:06:00,71.2,67.5,28.88,SW,224,0.0,0.0,88,0.43,, +RA,0.43,VWS V14.01,2013-07-02 15:06:00,
2013-07-02 11:11:00,71.1,67.3,28.88,SW,224,0.0,0.0,88,0.39,, +RA,0.43,VWS V14.01,2013-07-02 15:11:00,
2013-07-02 11:16:00,71.1,67.7,28.88,SW,224,0.0,0.0,89,0.39,, +RA,0.43,VWS V14.01,2013-07-02 15:16:00,
2013-07-02 11:21:00,71.4,68.0,28.88,SW,224,0.0,0.0,89,0.35,, +RA,0.43,VWS V14.01,2013-07-02 15:21:00,
2013-07-02 11:26:00,71.4,68.3,28.88,SW,224,0.0,0.0,90,0.31,, +RA,0.43,VWS V14.01,2013-07-02 15:26:00,
2013-07-02 11:31:00,71.6,68.2,28.88,SW,224,0.0,0.0,89,0.31,, +RA,0.43,VWS V14.01,2013-07-02 15:31:00,
2013-07-02 11:36:00,71.6,68.2,28.88,SW,224,0.0,0.0,89,0.35,,-RA,0.47,VWS V14.01,2013-07-02 15:36:00,
2013-07-02 11:41:00,71.4,68.0,28.88,SW,224,0.0,0.0,89,0.35,,-RA,0.47,VWS V14.01,2013-07-02 15:41:00,
2013-07-02 11:47:00,71.4,67.7,28.88,SW,224,0.0,0.0,88,0.04,,-RA,0.47,VWS V14.01,2013-07-02 15:47:00,
2013-07-02 11:52:00,71.6,67.5,28.88,SW,224,0.0,0.0,87,0.04,,-RA,0.47,VWS V14.01,2013-07-02 15:52:00,
2013-07-02 11:57:00,71.4,67.3,28.88,NW,315,0.0,0.0,87,0.04,,-RA,0.47,VWS V14.01,2013-07-02 15:57:00,
2013-07-02 12:02:00,71.4,67.0,28.88,NW,315,0.0,0.0,86,0.04,,-RA,0.47,VWS V14.01,2013-07-02 16:02:00,
2013-07-02 12:07:00,71.4,66.3,28.88,NW,315,0.0,0.0,84,0.04,,OVC080,0.47,VWS V14.01,2013-07-02 16:07:00,
2013-07-02 12:12:00,71.6,66.5,28.88,NW,315,0.0,0.0,84,0.04,,OVC080,0.47,VWS V14.01,2013-07-02 16:12:00,
2013-07-02 12:17:00,71.4,65.6,28.88,NW,315,0.0,0.0,82,0.04,,OVC080,0.47,VWS V14.01,2013-07-02 16:17:00,
2013-07-02 12:22:00,71.6,65.5,28.88,NW,315,0.0,0.0,81,0.04,,OVC080,0.47,VWS V14.01,2013-07-02 16:22:00,
2013-07-02 12:27:00,71.4,65.3,28.88,NW,315,0.0,0.0,81,0.04,,OVC080,0.47,VWS V14.01,2013-07-02 16:27:00,
2013-07-02 12:32:00,71.4,64.9,28.88,NW,315,0.0,0.0,80,0.04,,OVC080,0.51,VWS V14.01,2013-07-02 16:32:00,
2013-07-02 12:37:00,71.4,65.3,28.88,NW,315,0.0,0.0,81,0.04,,OVC080,0.51,VWS V14.01,2013-07-02 16:37:00,
2013-07-02 12:42:00,71.2,65.5,28.88,NW,315,0.0,0.0,82,0.24,,OVC080,0.71,VWS V14.01,2013-07-02 16:42:00,
2013-07-02 12:48:00,71.2,66.2,28.88,NW,315,0.0,0.0,84,0.24,,OVC080,0.71,VWS V14.01,2013-07-02 16:48:00,
2013-07-02 12:53:00,71.1,66.3,28.88,NW,315,0.0,0.0,85,0.31,,OVC080,0.79,VWS V14.01,2013-07-02 16:53:00,
2013-07-02 12:58:00,70.9,66.2,28.88,SSW,194,2.2,2.2,85,0.39,,OVC080,0.87,VWS V14.01,2013-07-02 16:58:00,
2013-07-02 13:03:00,70.9,66.5,28.91,SSW,195,0.0,0.0,86,0.47,,RA,0.94,VWS V14.01,2013-07-02 17:03:00,
2013-07-02 13:08:00,70.9,66.8,28.91,SSW,194,0.0,0.0,87,0.51,,RA,0.98,VWS V14.01,2013-07-02 17:08:00,
2013-07-02 13:13:00,70.9,66.8,28.91,SSW,195,0.0,0.0,87,0.51,,RA,0.98,VWS V14.01,2013-07-02 17:13:00,
2013-07-02 13:18:00,70.7,66.7,28.91,SSW,195,0.0,0.0,87,0.51,,RA,0.98,VWS V14.01,2013-07-02 17:18:00,
2013-07-02 13:23:00,70.5,66.5,28.91,SSW,209,2.7,2.7,87,0.51,,RA,0.98,VWS V14.01,2013-07-02 17:23:00,
2013-07-02 13:28:00,70.3,66.3,28.91,WSW,242,0.0,2.7,87,1.02,,RA,1.50,VWS V14.01,2013-07-02 17:28:00,
2013-07-02 13:33:00,70.7,67.3,28.91,WSW,242,0.0,0.0,89,0.98,, +RA,1.50,VWS V14.01,2013-07-02 17:33:00,
2013-07-02 13:38:00,71.1,67.7,28.91,WSW,242,0.0,0.0,89,0.98,, +RA,1.50,VWS V14.01,2013-07-02 17:38:00,
2013-07-02 13:43:00,71.1,68.0,28.91,WSW,242,0.0,0.0,90,0.79,, +RA,1.50,VWS V14.01,2013-07-02 17:43:00,
2013-07-02 13:48:00,71.2,68.2,28.91,WSW,242,0.0,0.0,90,0.79,, +RA,1.50,VWS V14.01,2013-07-02 17:48:00,
2013-07-02 13:54:00,71.1,68.0,28.91,WSW,242,0.0,0.0,90,0.71,, +RA,1.50,VWS V14.01,2013-07-02 17:54:00,
2013-07-02 13:59:00,70.9,67.5,28.91,WSW,242,0.0,0.0,89,0.63,, +RA,1.50,VWS V14.01,2013-07-02 17:59:00,
2013-07-02 14:04:00,70.9,67.2,28.88,WSW,242,0.0,0.0,88,0.55,,-RA,1.50,VWS V14.01,2013-07-02 18:04:00,
2013-07-02 14:09:00,71.4,67.7,28.88,WSW,242,0.0,0.0,88,0.51,,-RA,1.50,VWS V14.01,2013-07-02 18:09:00,
2013-07-02 14:14:00,71.4,67.7,28.88,WSW,242,0.0,0.0,88,0.51,,-RA,1.50,VWS V14.01,2013-07-02 18:14:00,
2013-07-02 14:19:00,71.1,67.0,28.88,WSW,242,0.0,0.0,87,0.51,,-RA,1.50,VWS V14.01,2013-07-02 18:19:00,
2013-07-02 14:24:00,71.2,67.2,28.88,WSW,242,0.0,0.0,87,0.51,,-RA,1.50,VWS V14.01,2013-07-02 18:24:00,
2013-07-02 14:29:00,71.4,67.3,28.88,WSW,242,0.0,0.0,87,0.00,,-RA,1.50,VWS V14.01,2013-07-02 18:29:00,
2013-07-02 14:34:00,71.6,67.2,28.91,WSW,242,0.0,0.0,86,0.00,,-RA,1.50,VWS V14.01,2013-07-02 18:34:00,
2013-07-02 14:39:00,72.0,67.9,28.91,WSW,242,0.0,0.0,87,0.00,,-RA,1.50,VWS V14.01,2013-07-02 18:39:00,
2013-07-02 14:44:00,72.0,67.9,28.91,North,357,0.0,0.0,87,0.00,,-RA,1.50,VWS V14.01,2013-07-02 18:44:00,
2013-07-02 14:49:00,72.1,68.1,28.88,ENE,60,0.0,0.0,87,0.00,,-RA,1.50,VWS V14.01,2013-07-02 18:49:00,
2013-07-02 14:54:00,71.4,65.3,28.88,NW,324,0.0,0.0,81,0.00,,-RA,1.50,VWS V14.01,2013-07-02 18:54:00,
2013-07-02 14:59:00,71.8,65.6,28.88,NW,324,0.0,0.0,81,0.00,,-RA,1.50,VWS V14.01,2013-07-02 18:59:00,
2013-07-02 15:04:00,72.0,65.8,28.88,NW,324,0.0,0.0,81,0.00,,-RA,1.50,VWS V14.01,2013-07-02 19:04:00,
2013-07-02 15:10:00,72.3,66.2,28.88,North,357,0.0,0.0,81,0.00,,-RA,1.50,VWS V14.01,2013-07-02 19:10:00,
2013-07-02 15:15:00,72.1,65.3,28.88,North,2,0.0,0.0,79,0.00,,-RA,1.50,VWS V14.01,2013-07-02 19:15:00,
2013-07-02 15:20:00,72.5,66.0,28.88,North,7,0.0,0.0,80,0.00,,-RA,1.50,VWS V14.01,2013-07-02 19:20:00,
2013-07-02 15:25:00,72.5,65.6,28.88,North,7,0.0,0.0,79,0.00,,-RA,1.50,VWS V14.01,2013-07-02 19:25:00,
2013-07-02 15:30:00,72.7,65.4,28.88,NE,46,0.0,0.0,78,0.00,,-RA,1.50,VWS V14.01,2013-07-02 19:30:00,
2013-07-02 15:35:00,72.9,66.0,28.88,NE,46,0.0,0.0,79,0.00,,-RA,1.50,VWS V14.01,2013-07-02 19:35:00,
2013-07-02 15:40:00,73.0,65.0,28.88,NE,46,0.0,0.0,76,0.00,,-RA,1.50,VWS V14.01,2013-07-02 19:40:00,
2013-07-02 15:45:00,73.2,64.4,28.88,NE,46,0.0,0.0,74,0.00,,-RA,1.50,VWS V14.01,2013-07-02 19:45:00,
2013-07-02 15:50:00,73.0,61.9,28.88,NE,46,0.0,0.0,68,0.00,,-RA,1.50,VWS V14.01,2013-07-02 19:50:00,
2013-07-02 15:55:00,73.4,63.4,28.88,NE,46,0.0,0.0,71,0.00,,-RA,1.50,VWS V14.01,2013-07-02 19:55:00,
2013-07-02 16:00:00,73.4,63.4,28.88,ENE,76,0.0,0.0,71,0.00,,-RA,1.50,VWS V14.01,2013-07-02 20:00:00,
2013-07-02 16:05:00,73.6,62.0,28.88,ENE,68,0.0,0.0,67,0.00,,OVC100,1.50,VWS V14.01,2013-07-02 20:05:00,
2013-07-02 16:10:00,73.9,61.4,28.88,ENE,68,0.0,0.0,65,0.00,,OVC100,1.50,VWS V14.01,2013-07-02 20:10:00,
2013-07-02 16:15:00,73.9,58.2,28.88,ENE,68,0.0,0.0,58,0.00,,OVC100,1.50,VWS V14.01,2013-07-02 20:15:00,
2013-07-02 16:20:00,73.8,54.5,28.88,East,87,0.0,2.7,51,0.00,,OVC100,1.50,VWS V14.01,2013-07-02 20:20:00,
2013-07-02 16:25:00,73.8,58.5,28.88,East,87,0.0,0.0,59,0.00,,OVC100,1.50,VWS V14.01,2013-07-02 20:25:00,
2013-07-02 16:30:00,73.8,57.1,28.88,East,95,0.0,0.0,56,0.00,,OVC100,1.50,VWS V14.01,2013-07-02 20:30:00,
2013-07-02 16:35:00,73.6,57.4,28.88,East,96,0.0,0.0,57,0.00,,OVC100,1.50,VWS V14.01,2013-07-02 20:35:00,
2013-07-02 16:40:00,73.6,58.4,28.88,East,96,0.0,0.0,59,0.00,,OVC100,1.50,VWS V14.01,2013-07-02 20:40:00,
2013-07-02 16:45:00,73.2,58.0,28.88,SSE,165,5.8,5.8,59,0.00,,OVC100,1.50,VWS V14.01,2013-07-02 20:45:00,
2013-07-02 16:50:00,73.0,57.9,28.91,West,261,0.0,0.0,59,0.00,,OVC100,1.50,VWS V14.01,2013-07-02 20:50:00,
2013-07-02 16:55:00,72.7,58.0,28.91,East,81,2.7,2.7,60,0.00,,OVC100,1.50,VWS V14.01,2013-07-02 20:55:00,
2013-07-02 17:01:00,72.0,60.0,28.91,South,173,3.1,3.1,66,0.04,,OVC100,1.54,VWS V14.01,2013-07-02 21:01:00,
2013-07-02 17:06:00,71.8,61.1,28.91,SSW,208,2.7,3.1,69,0.04,,OVC065,1.54,VWS V14.01,2013-07-02 21:06:00,
2013-07-02 17:11:00,71.6,61.3,28.91,SSW,208,0.0,0.0,70,0.04,,OVC065,1.54,VWS V14.01,2013-07-02 21:11:00,
2013-07-02 17:16:00,71.4,62.7,28.91,SSW,208,0.0,0.0,74,0.04,,OVC065,1.54,VWS V14.01,2013-07-02 21:16:00,
2013-07-02 17:21:00,71.4,63.5,28.91,SSW,208,0.0,0.0,76,0.04,,OVC065,1.54,VWS V14.01,2013-07-02 21:21:00,
2013-07-02 17:26:00,71.6,64.8,28.91,SSW,208,0.0,0.0,79,0.04,,OVC065,1.54,VWS V14.01,2013-07-02 21:26:00,
2013-07-02 17:31:00,71.6,65.1,28.91,SSW,208,0.0,0.0,80,0.08,,OVC065,1.57,VWS V14.01,2013-07-02 21:31:00,
2013-07-02 17:36:00,71.6,65.5,28.91,SSW,208,0.0,0.0,81,0.08,,-RA,1.57,VWS V14.01,2013-07-02 21:36:00,
2013-07-02 17:41:00,71.4,65.3,28.91,SSW,208,0.0,0.0,81,0.08,,-RA,1.57,VWS V14.01,2013-07-02 21:41:00,
2013-07-02 17:46:00,71.4,65.6,28.91,SSW,208,0.0,0.0,82,0.08,,-RA,1.57,VWS V14.01,2013-07-02 21:46:00,
2013-07-02 17:51:00,71.4,66.0,28.91,SSW,208,0.0,0.0,83,0.08,,-RA,1.57,VWS V14.01,2013-07-02 21:51:00,
2013-07-02 17:56:00,71.4,66.3,28.91,SSW,208,0.0,0.0,84,0.08,,-RA,1.57,VWS V14.01,2013-07-02 21:56:00,
2013-07-02 18:01:00,71.4,66.3,28.91,SSW,208,0.0,0.0,84,0.08,,-RA,1.61,VWS V14.01,2013-07-02 22:01:00,
2013-07-02 18:06:00,71.2,66.2,28.91,SSW,208,0.0,0.0,84,0.16,,RA,1.69,VWS V14.01,2013-07-02 22:06:00,
2013-07-02 18:11:00,71.2,66.5,28.91,SSW,208,0.0,0.0,85,0.24,,RA,1.77,VWS V14.01,2013-07-02 22:11:00,
2013-07-02 18:16:00,71.2,66.8,28.91,SSW,208,0.0,0.0,86,0.31,,RA,1.85,VWS V14.01,2013-07-02 22:16:00,
2013-07-02 18:22:00,71.2,66.8,28.91,SSW,208,0.0,0.0,86,0.31,,RA,1.85,VWS V14.01,2013-07-02 22:22:00,
2013-07-02 18:27:00,71.4,67.7,28.91,SSW,208,0.0,0.0,88,0.31,,RA,1.85,VWS V14.01,2013-07-02 22:27:00,
2013-07-02 18:32:00,71.1,67.0,28.91,ENE,59,0.0,0.0,87,0.28,,-RA,1.85,VWS V14.01,2013-07-02 22:32:00,
2013-07-02 18:37:00,70.9,67.2,28.91,ESE,103,0.0,0.0,88,0.28,,-RA,1.85,VWS V14.01,2013-07-02 22:37:00,
2013-07-02 18:42:00,70.9,66.8,28.91,ESE,103,0.0,0.0,87,0.31,,-RA,1.89,VWS V14.01,2013-07-02 22:42:00,
2013-07-02 18:47:00,70.7,66.7,28.91,East,85,0.0,0.0,87,0.31,,-RA,1.89,VWS V14.01,2013-07-02 22:47:00,
2013-07-02 18:52:00,70.5,66.5,28.91,ESE,105,2.7,2.7,87,0.35,,-RA,1.93,VWS V14.01,2013-07-02 22:52:00,
2013-07-02 18:57:00,70.3,66.3,28.91,SW,221,0.0,0.0,87,0.35,,-RA,1.93,VWS V14.01,2013-07-02 22:57:00,
2013-07-02 19:02:00,70.0,65.6,28.91,SSE,154,0.0,0.0,86,0.31,,RA,1.93,VWS V14.01,2013-07-02 23:02:00,
2013-07-02 19:07:00,69.8,65.1,28.91,SSE,159,0.0,4.0,85,0.24,,RA,1.93,VWS V14.01,2013-07-02 23:07:00,
2013-07-02 19:12:00,69.6,64.9,28.91,South,183,0.0,0.0,85,0.16,,RA,1.93,VWS V14.01,2013-07-02 23:12:00,
2013-07-02 19:18:00,69.6,64.9,28.91,West,264,0.0,0.0,85,0.08,,RA,1.93,VWS V14.01,2013-07-02 23:18:00,
2013-07-02 19:23:00,69.6,64.9,28.91,West,278,0.0,0.0,85,0.08,,RA,1.93,VWS V14.01,2013-07-02 23:23:00,
2013-07-02 19:28:00,69.6,64.9,28.91,WSW,246,0.0,0.0,85,0.12,,RA,1.97,VWS V14.01,2013-07-02 23:28:00,
2013-07-02 19:29:00,69.6,64.9,28.91,WNW,292,0.0,0.0,85,0.12,,RA,1.97,VWS V14.01,2013-07-02 23:29:00,
2013-07-02 19:34:00,69.6,64.9,28.91,ENE,71,0.0,0.0,85,0.12,,RA,1.97,VWS V14.01,2013-07-02 23:34:00,
2013-07-02 19:39:00,69.6,64.9,28.91,ESE,110,2.7,2.7,85,0.08,,RA,1.97,VWS V14.01,2013-07-02 23:39:00,
2013-07-02 19:44:00,69.6,64.9,28.91,NW,305,0.0,0.0,85,0.08,,RA,1.97,VWS V14.01,2013-07-02 23:44:00,
2013-07-02 19:49:00,69.6,64.9,28.91,SW,218,0.0,2.2,85,0.08,,RA,1.97,VWS V14.01,2013-07-02 23:49:00,
2013-07-02 19:54:00,69.6,64.9,28.91,SE,125,0.0,2.7,85,0.04,,RA,1.97,VWS V14.01,2013-07-02 23:54:00,
2013-07-02 19:59:00,69.6,64.6,28.91,ENE,57,0.0,0.0,84,0.04,,RA,1.97,VWS V14.01,2013-07-02 23:59:00,
2013-07-02 20:01:00,69.6,64.6,28.91,SW,218,0.0,0.0,84,0.04,,RA,1.97,VWS V14.01,2013-07-03 00:01:00,
2013-07-02 20:07:00,69.6,64.6,28.91,North,10,0.0,0.0,84,0.04,,-RA,1.97,VWS V14.01,2013-07-03 00:07:00,
2013-07-02 20:12:00,69.8,64.8,28.91,NNW,338,0.0,0.0,84,0.04,,-RA,1.97,VWS V14.01,2013-07-03 00:12:00,
2013-07-02 20:17:00,69.8,64.8,28.91,WSW,239,4.9,4.9,84,0.04,,-RA,1.97,VWS V14.01,2013-07-03 00:17:00,
2013-07-02 20:22:00,69.8,64.8,28.91,WSW,256,0.0,0.0,84,0.04,,-RA,1.97,VWS V14.01,2013-07-03 00:22:00,
2013-07-02 20:24:00,69.8,64.8,28.91,NE,51,0.0,0.0,84,0.04,,-RA,1.97,VWS V14.01,2013-07-03 00:24:00,
2013-07-02 20:28:00,69.8,64.8,28.91,SE,135,2.7,2.7,84,0.00,,-RA,1.97,VWS V14.01,2013-07-03 00:28:00,
2013-07-02 20:33:00,69.8,64.4,28.91,NW,323,0.0,0.0,83,0.00,,-RA,1.97,VWS V14.01,2013-07-03 00:33:00,
2013-07-02 20:35:00,69.8,64.4,28.91,NE,41,0.0,0.0,83,0.00,,-RA,1.97,VWS V14.01,2013-07-03 00:35:00,
2013-07-02 20:40:00,70.0,64.6,28.91,SW,234,0.0,0.0,83,0.00,,-RA,1.97,VWS V14.01,2013-07-03 00:40:00,
2013-07-02 20:45:00,70.0,64.2,28.91,SE,143,0.0,0.0,82,0.00,,-RA,1.97,VWS V14.01,2013-07-03 00:45:00,
2013-07-02 20:50:00,70.0,64.2,28.91,South,173,0.0,2.7,82,0.00,,-RA,1.97,VWS V14.01,2013-07-03 00:50:00,
2013-07-02 20:55:00,70.0,63.9,28.91,ENE,71,0.0,0.0,81,0.00,,-RA,1.97,VWS V14.01,2013-07-03 00:55:00,
2013-07-02 21:00:00,70.0,63.9,28.91,East,101,0.0,2.2,81,0.00,,-RA,1.97,VWS V14.01,2013-07-03 01:00:00,
2013-07-02 21:04:00,70.0,63.9,28.91,ENE,57,0.0,3.1,81,0.00,,OVC018,1.97,VWS V14.01,2013-07-03 01:04:00,
2013-07-02 21:09:00,70.0,63.9,28.91,WSW,257,2.2,3.1,81,0.04,,OVC018,2.01,VWS V14.01,2013-07-03 01:09:00,
2013-07-02 21:14:00,70.0,64.2,28.91,North,353,0.0,0.0,82,0.04,,OVC018,2.01,VWS V14.01,2013-07-03 01:14:00,
2013-07-02 21:20:00,70.0,64.6,28.91,SSW,208,0.0,0.0,83,0.04,,OVC018,2.01,VWS V14.01,2013-07-03 01:20:00,
2013-07-02 21:25:00,70.0,64.6,28.91,SW,231,2.7,5.4,83,0.04,,OVC018,2.01,VWS V14.01,2013-07-03 01:25:00,
2013-07-02 21:26:00,70.2,64.8,28.91,ENE,59,0.0,2.7,83,0.04,,OVC018,2.01,VWS V14.01,2013-07-03 01:26:00,
2013-07-02 21:31:00,70.2,64.8,28.91,South,188,0.0,0.0,83,0.04,,-RA,2.01,VWS V14.01,2013-07-03 01:31:00,
2013-07-02 21:36:00,70.2,64.8,28.91,SSW,194,5.4,5.4,83,0.04,,-RA,2.01,VWS V14.01,2013-07-03 01:36:00,
2013-07-02 21:41:00,70.2,64.8,28.91,SE,144,0.0,0.0,83,0.04,,-RA,2.01,VWS V14.01,2013-07-03 01:41:00,
2013-07-02 21:46:00,70.2,64.8,28.91,NNE,27,0.0,0.0,83,0.04,,-RA,2.01,VWS V14.01,2013-07-03 01:46:00,
2013-07-02 21:49:00,70.2,64.8,28.94,NNE,27,0.0,0.0,83,0.04,,-RA,2.01,VWS V14.01,2013-07-03 01:49:00,
2013-07-02 21:50:00,70.2,65.1,28.94,ENE,67,0.0,0.0,84,0.04,,-RA,2.01,VWS V14.01,2013-07-03 01:50:00,
2013-07-02 21:55:00,70.2,65.1,28.94,SE,146,0.0,0.0,84,0.04,,-RA,2.01,VWS V14.01,2013-07-03 01:55:00,
2013-07-02 22:00:00,70.2,65.1,28.94,South,181,0.0,2.7,84,0.04,,-RA,2.01,VWS V14.01,2013-07-03 02:00:00,
2013-07-02 22:05:00,70.2,65.4,28.94,NE,52,0.0,0.0,85,0.04,,-RA,2.01,VWS V14.01,2013-07-03 02:05:00,
2013-07-02 22:10:00,70.2,65.4,28.94,SE,126,3.1,3.1,85,0.04,,-RA,2.05,VWS V14.01,2013-07-03 02:10:00,
2013-07-02 22:15:00,70.2,65.1,28.94,East,100,0.0,0.0,84,0.04,,-RA,2.05,VWS V14.01,2013-07-03 02:15:00,
2013-07-02 22:21:00,70.2,65.1,28.94,SE,133,0.0,0.0,84,0.04,,-RA,2.05,VWS V14.01,2013-07-03 02:21:00,
2013-07-02 22:26:00,70.2,65.1,28.94,SE,133,0.0,0.0,84,0.04,,-RA,2.05,VWS V14.01,2013-07-03 02:26:00,
2013-07-02 22:31:00,70.2,65.1,28.94,ESE,110,0.0,0.0,84,0.04,,-RA,2.05,VWS V14.01,2013-07-03 02:31:00,
2013-07-02 22:32:00,70.2,65.1,28.94,ESE,110,0.0,0.0,84,0.04,,-RA,2.05,VWS V14.01,2013-07-03 02:32:00,
2013-07-02 22:37:00,70.2,65.1,28.94,ESE,110,0.0,0.0,84,0.04,,-RA,2.05,VWS V14.01,2013-07-03 02:37:00,
2013-07-02 22:42:00,70.0,65.3,28.94,ESE,110,0.0,0.0,85,0.04,,-RA,2.05,VWS V14.01,2013-07-03 02:42:00,
2013-07-02 22:46:00,70.0,65.3,28.94,ESE,110,0.0,0.0,85,0.04,,-RA,2.05,VWS V14.01,2013-07-03 02:46:00,
2013-07-02 22:51:00,70.0,65.3,28.94,ESE,110,0.0,0.0,85,0.04,,-RA,2.05,VWS V14.01,2013-07-03 02:51:00,
2013-07-02 22:56:00,70.0,65.3,28.94,East,97,0.0,0.0,85,0.04,,-RA,2.05,VWS V14.01,2013-07-03 02:56:00,